Weather in Mikshino

Russia / Tver Oblast     57°14′29″N   35°42′44″E
temp.,
°C
wind,
m/s
gust,
m/s
humid.,
%
clouds,
%
prec.,
mm/h
press.,
hPa
HPBL,
m
3 march, wed
wed300:00−3nw4128586 0.0 1014625
03:00−4nw4128543 0.0 1016505
06:00−5wnw411910 0.0 1016434
09:00−1wnw5118836 0.1 10151037
12:000wnw51080100 0.1 10141043
15:000w61083100 0.1 10131014
18:00−1w51185100 0.0 1010997
21:00−1w51390100 0.1 1007950
4 march, thu
thu400:00+1w61391100 0.3 1003985
03:00+1w71397100 1.3 10011051
06:00−1nnw61190100 1.3 1000899
09:00−3nw5118293 1.4 1001817
12:00−2nw4774100 0.0 1001853
15:00−1nw3670100 0.0 10011081
18:00−4nnw228667 0.1 100128
21:00−6n229235 0.1 100245
5 march, fri
fri500:00−8n119619 0.0 100321
03:00−8w119632 0.0 100421
06:00−6w279691 0.1 1005284
09:00−7nw488894 0.2 1006534
12:00−5nw467497 0.1 1008995
15:00−4nw466698 0.3 10091251
18:00−6nw2680100 0.2 1010243
21:00−8nw279090 0.2 1013251
6 march, sat
sat600:00−9nnw389454 0.0 1015402
03:00−11nnw369369 0.1 1016362
06:00−12nw259398 0.1 1017365
09:00−11nw368579 0.1 1017333
12:00−7wnw36650 0.0 1017979
15:00−6w366746 0.1 10161194
18:00−7wsw377899 0.1 1014232
21:00−7sw41279100 0.1 1012701
7 march, sun
sun700:00−6sw71391100 0.3 10071071
03:00−5sw71692100 1.7 10011273
06:00−4sw81792100 1.6 9941373
09:00−2wsw91788100 2.3 9921485
12:00−4w5105094 0.9 9931618
15:00−5wnw6125980 1.2 9922145
18:00−6w5117289 0.1 9931329
21:00−8wnw4108695 0.8 993816